Location: Caramacate
(10.0289°N, 66.7587°W)
Time: 20:54:59
(UTC+00:00)

Cosmos 2056 Rocket - Pass Details

Date: 05 August 2024
Orbit: 740 x 797 km, 74.0° (Epoch: 07 September)

Event Time Altitude Azimuth Distance (km) Brightness Sun altitude
Rises 23:32:07 0° 174° (S) 3,259 6.5 -11.0°
Reaches altitude 10° 23:34:42 10° 165° (SSE) 2,322 5.7 -11.6°
Maximum altitude 23:39:27 34° 101° (ESE) 1,242 4.1 -12.7°
Drops below altitude 10° 23:44:06 10° 37° (NE) 2,286 5.8 -13.8°
Sets 23:46:38 0° 28° (NNE) 3,202 6.6 -14.4°
